User: anonymous   Login
Location: Unspecified
(0.0000°N, 0.0000°E)
Time: 10:38:56
(UTC+02:00)
Language:

Coronas F rocket - Orbit

View from above orbital plane
View from above orbital plane
View from above satellite
View from above satellite

Ground track
Ground track

The orbit data is extracted from the following two-line orbital elements,

1 26874U 01032B   16209.54270445  .00019053  00000-0  89472-4 0  9994
2 26874  82.4580 237.6041 0007565  63.0715 297.1326 15.82947728842023
Epoch (UTC): 27 July 2016 13:01:29
Eccentricity: 0.0007565
inclination: 82.4580°
perigee height: 317 km
apogee height: 327 km
right ascension of ascending node: 237.6041°
argument of perigee: 63.0715°
revolutions per day: 15.82947728
mean anomaly at epoch: 297.1326°
orbit number at epoch: 84202

The dashed part of the orbit path shows where the satellite is in the earth's shadow,  

DLR